Tracking 27079 objects as of 23-Mar-2023
HD Live streaming from Space Station
objects crossing your sky now

STARLINK-3837

Track STARLINK-3837 now!
10-day predictions
STARLINK-3837 is classified as:


NORAD ID: 52358
Int'l Code: 2022-045AD
Perigee: 546.0 km
Apogee: 547.8 km
Inclination: 53.2 °
Period: 95.4 minutes
Semi major axis: 6917 km
RCS: Unknown
Launch date: April 29, 2022
Source: United States (US)
Launch site: AIR FORCE EASTERN TEST RANGE (AFETR)
Your satellite tracking list
Your tracking list is empty




NASA's NSSDC Master Catalog

Two Line Element Set (TLE):
1 52358U 22045AD  23081.24055638  .00006266  00000-0  41147-3 0  9993
2 52358  53.2172  22.9076 0001321 109.2825 250.8310 15.08838283 52221
Source of the keplerian elements: AFSPC